Location: *
(49.4547°N, 7.9131°E)
Time: 20:52:07
(UTC+00:00)

SL-16 R/B - Pass Details

Date: 22 September 2019
Orbit: 840 x 849 km, 71.0° (Epoch: 21 October)

Event Time Altitude Azimuth Distance (km) Brightness Sun altitude
Rises 19:14:47 0° 330° (NNW) 3,417 6.2 -17.9°
Reaches altitude 10° 19:17:14 10° 330° (NNW) 2,479 5.4 -18.2°
Maximum altitude 19:22:57 86° 243° (WSW) 857 2.2 -19.1°
Enters shadow 19:26:14 26° 156° (SSE) 1,594 3.2 -19.6°
